Time,TemperatureF,DewpointF,PressureIn,WindDirection,WindDirectionDegrees,WindSpeedMPH,WindSpeedGustMPH,Humidity,HourlyPrecipIn,Conditions,Clouds,dailyrainin,SoftwareType,DateUTC
2013-10-05 00:01:00,60.4,53.2,29.82,North,0,0.0,1.0,77,0.00,,,0.00,VWS V14.00,2013-10-05 04:01:00,
2013-10-05 00:06:00,60.4,53.2,29.82,North,0,0.0,1.0,77,0.00,,,0.00,VWS V14.00,2013-10-05 04:06:00,
2013-10-05 00:11:00,60.4,53.2,29.82,North,0,0.0,1.0,77,0.00,,,0.00,VWS V14.00,2013-10-05 04:11:00,
2013-10-05 00:16:00,60.4,53.6,29.82,North,0,0.0,1.0,78,0.00,,,0.00,VWS V14.00,2013-10-05 04:16:00,
2013-10-05 00:21:00,60.4,53.6,29.79,North,0,0.0,1.0,78,0.00,,,0.00,VWS V14.00,2013-10-05 04:21:00,
2013-10-05 00:26:00,60.6,53.7,29.79,North,0,0.0,1.0,78,0.00,,,0.00,VWS V14.00,2013-10-05 04:26:00,
2013-10-05 00:31:00,60.6,53.7,29.79,North,0,0.0,1.0,78,0.00,,,0.00,VWS V14.00,2013-10-05 04:31:00,
2013-10-05 00:36:00,60.6,53.7,29.79,North,0,0.0,1.0,78,0.00,,,0.00,VWS V14.00,2013-10-05 04:36:00,
2013-10-05 00:41:00,60.6,53.7,29.79,NNW,338,0.0,1.0,78,0.00,,,0.00,VWS V14.00,2013-10-05 04:41:00,
2013-10-05 00:46:00,60.6,53.7,29.79,NNW,338,0.0,1.0,78,0.00,,,0.00,VWS V14.00,2013-10-05 04:46:00,
2013-10-05 00:51:00,60.6,53.7,29.79,NNW,338,0.0,1.0,78,0.00,,,0.00,VWS V14.00,2013-10-05 04:51:00,
2013-10-05 00:56:00,60.8,53.9,29.79,NNW,338,0.0,1.0,78,0.00,,,0.00,VWS V14.00,2013-10-05 04:56:00,
2013-10-05 01:01:00,60.8,53.9,29.79,NW,315,0.0,1.0,78,0.00,,,0.00,VWS V14.00,2013-10-05 05:01:00,
2013-10-05 01:06:00,60.8,53.9,29.79,NW,315,0.0,1.0,78,0.00,,,0.00,VWS V14.00,2013-10-05 05:06:00,
2013-10-05 01:11:00,60.8,53.9,29.79,NW,315,0.0,1.0,78,0.00,,,0.00,VWS V14.00,2013-10-05 05:11:00,
2013-10-05 01:16:00,60.8,53.9,29.79,NW,315,0.0,1.0,78,0.00,,,0.00,VWS V14.00,2013-10-05 05:16:00,
2013-10-05 01:21:00,60.8,53.9,29.79,NW,315,0.0,1.0,78,0.00,,,0.00,VWS V14.00,2013-10-05 05:21:00,
2013-10-05 01:26:00,60.8,53.9,29.79,NW,315,0.0,1.0,78,0.00,,,0.00,VWS V14.00,2013-10-05 05:26:00,
2013-10-05 01:31:00,60.6,53.7,29.79,NW,315,0.0,1.0,78,0.00,,,0.00,VWS V14.00,2013-10-05 05:31:00,
2013-10-05 01:36:00,60.6,53.7,29.82,NW,315,0.0,1.0,78,0.00,,,0.00,VWS V14.00,2013-10-05 05:36:00,
2013-10-05 01:41:00,60.6,54.1,29.82,NW,315,0.0,1.0,79,0.00,,,0.00,VWS V14.00,2013-10-05 05:41:00,
2013-10-05 01:46:00,60.6,53.7,29.82,NW,315,0.0,1.0,78,0.00,,,0.00,VWS V14.00,2013-10-05 05:46:00,
2013-10-05 01:51:00,60.6,54.1,29.82,NW,315,0.0,1.0,79,0.00,,,0.00,VWS V14.00,2013-10-05 05:51:00,
2013-10-05 01:56:00,60.4,53.6,29.82,NW,315,0.0,1.0,78,0.00,,,0.00,VWS V14.00,2013-10-05 05:56:00,
2013-10-05 02:01:00,60.4,53.9,29.82,NW,315,0.0,1.0,79,0.00,,,0.00,VWS V14.00,2013-10-05 06:01:00,
2013-10-05 02:06:00,60.4,53.9,29.82,NW,315,0.0,1.0,79,0.00,,,0.00,VWS V14.00,2013-10-05 06:06:00,
2013-10-05 02:11:00,60.4,53.9,29.82,NW,315,0.0,1.0,79,0.00,,,0.00,VWS V14.00,2013-10-05 06:11:00,
2013-10-05 02:16:00,60.4,53.9,29.82,NW,315,0.0,1.0,79,0.00,,,0.00,VWS V14.00,2013-10-05 06:16:00,
2013-10-05 02:21:00,60.4,53.9,29.82,NW,315,0.0,1.0,79,0.00,,,0.00,VWS V14.00,2013-10-05 06:21:00,
2013-10-05 02:26:00,60.3,53.7,29.82,NW,315,0.0,1.0,79,0.00,,,0.00,VWS V14.00,2013-10-05 06:26:00,
2013-10-05 02:31:00,60.3,53.7,29.82,NW,315,0.0,1.0,79,0.00,,,0.00,VWS V14.00,2013-10-05 06:31:00,
2013-10-05 02:36:00,60.3,53.7,29.82,NW,315,0.0,1.0,79,0.00,,,0.00,VWS V14.00,2013-10-05 06:36:00,
2013-10-05 02:41:00,60.3,53.7,29.82,North,0,0.0,1.0,79,0.00,,,0.00,VWS V14.00,2013-10-05 06:41:00,
2013-10-05 02:46:00,60.1,53.9,29.82,North,0,0.0,1.0,80,0.00,,,0.00,VWS V14.00,2013-10-05 06:46:00,
2013-10-05 02:51:00,60.1,53.9,29.79,NNE,22,0.0,1.0,80,0.00,,,0.00,VWS V14.00,2013-10-05 06:51:00,
2013-10-05 02:56:00,60.1,53.9,29.79,North,0,0.0,1.0,80,0.00,,,0.00,VWS V14.00,2013-10-05 06:56:00,
2013-10-05 03:01:00,60.1,53.9,29.79,North,0,0.0,1.0,80,0.00,,,0.00,VWS V14.00,2013-10-05 07:01:00,
2013-10-05 03:06:00,60.1,53.9,29.79,North,0,0.0,1.0,80,0.00,,,0.00,VWS V14.00,2013-10-05 07:06:00,
2013-10-05 03:11:00,60.1,53.9,29.79,North,0,0.0,1.0,80,0.00,,,0.00,VWS V14.00,2013-10-05 07:11:00,
2013-10-05 03:16:00,59.9,53.7,29.79,North,0,0.0,1.0,80,0.00,,,0.00,VWS V14.00,2013-10-05 07:16:00,
2013-10-05 03:21:00,59.9,54.1,29.79,North,0,0.0,1.0,81,0.00,,,0.00,VWS V14.00,2013-10-05 07:21:00,
2013-10-05 03:26:00,60.1,54.2,29.79,North,0,0.0,1.0,81,0.00,,,0.00,VWS V14.00,2013-10-05 07:26:00,
2013-10-05 03:31:00,60.1,54.2,29.79,North,0,0.0,1.0,81,0.00,,,0.00,VWS V14.00,2013-10-05 07:31:00,
2013-10-05 03:36:00,60.1,53.9,29.79,North,0,0.0,1.0,80,0.00,,,0.00,VWS V14.00,2013-10-05 07:36:00,
2013-10-05 03:41:00,59.9,54.1,29.79,North,0,0.0,1.0,81,0.00,,,0.00,VWS V14.00,2013-10-05 07:41:00,
2013-10-05 03:45:00,60.1,54.2,29.79,NNW,338,0.0,1.0,81,0.00,,,0.00,VWS V14.00,2013-10-05 07:45:00,
2013-10-05 03:50:00,60.1,54.2,29.79,NNW,338,0.0,1.0,81,0.00,,,0.00,VWS V14.00,2013-10-05 07:50:00,
2013-10-05 03:55:00,60.1,54.2,29.79,North,0,0.0,1.0,81,0.00,,,0.00,VWS V14.00,2013-10-05 07:55:00,
2013-10-05 04:00:00,60.1,54.2,29.79,North,0,0.0,1.0,81,0.00,,,0.00,VWS V14.00,2013-10-05 08:00:00,
2013-10-05 04:06:00,60.1,54.2,29.79,North,0,0.0,1.0,81,0.00,,,0.00,VWS V14.00,2013-10-05 08:06:00,
2013-10-05 04:11:00,60.1,54.2,29.79,North,0,0.0,1.0,81,0.00,,,0.00,VWS V14.00,2013-10-05 08:11:00,
2013-10-05 04:16:00,60.1,54.2,29.79,North,0,0.0,1.0,81,0.00,,,0.00,VWS V14.00,2013-10-05 08:16:00,
2013-10-05 04:20:00,60.1,54.2,29.82,North,0,0.0,1.0,81,0.00,,,0.00,VWS V14.00,2013-10-05 08:20:00,
2013-10-05 04:25:00,60.1,54.2,29.82,North,0,0.0,1.0,81,0.00,,,0.00,VWS V14.00,2013-10-05 08:25:00,
2013-10-05 04:30:00,60.1,54.2,29.82,North,0,0.0,1.0,81,0.00,,,0.00,VWS V14.00,2013-10-05 08:30:00,
2013-10-05 04:35:00,60.1,54.2,29.79,North,0,0.0,1.0,81,0.00,,,0.00,VWS V14.00,2013-10-05 08:35:00,
2013-10-05 04:40:00,60.3,54.4,29.79,North,0,0.0,1.0,81,0.00,,,0.00,VWS V14.00,2013-10-05 08:40:00,
2013-10-05 04:45:00,60.1,54.2,29.79,North,0,0.0,1.0,81,0.00,,,0.00,VWS V14.00,2013-10-05 08:45:00,
2013-10-05 04:50:00,60.1,54.2,29.82,North,0,0.0,1.0,81,0.00,,,0.00,VWS V14.00,2013-10-05 08:50:00,
2013-10-05 04:55:00,60.3,54.4,29.82,NNW,338,0.0,1.0,81,0.00,,,0.00,VWS V14.00,2013-10-05 08:55:00,
2013-10-05 05:00:00,60.3,54.4,29.82,NNW,338,0.0,1.0,81,0.00,,,0.00,VWS V14.00,2013-10-05 09:00:00,
2013-10-05 05:05:00,60.3,54.4,29.82,NNW,338,0.0,1.0,81,0.00,,,0.00,VWS V14.00,2013-10-05 09:05:00,
2013-10-05 05:10:00,60.3,54.4,29.82,NNW,338,0.0,1.0,81,0.00,,,0.00,VWS V14.00,2013-10-05 09:10:00,
2013-10-05 05:15:00,60.3,54.4,29.82,NNW,338,0.0,1.0,81,0.00,,,0.00,VWS V14.00,2013-10-05 09:15:00,
2013-10-05 05:20:00,60.3,54.8,29.82,NNW,338,0.0,1.0,82,0.00,,,0.00,VWS V14.00,2013-10-05 09:20:00,
2013-10-05 05:25:00,60.3,54.8,29.82,NNW,338,0.0,1.0,82,0.00,,,0.00,VWS V14.00,2013-10-05 09:25:00,
2013-10-05 05:30:00,60.3,54.8,29.82,NNW,338,0.0,1.0,82,0.00,,,0.00,VWS V14.00,2013-10-05 09:30:00,
2013-10-05 05:35:00,60.3,54.8,29.82,NNW,338,0.0,1.0,82,0.00,,,0.00,VWS V14.00,2013-10-05 09:35:00,
2013-10-05 05:40:00,60.4,54.9,29.82,NNW,338,0.0,1.0,82,0.00,,,0.00,VWS V14.00,2013-10-05 09:40:00,
2013-10-05 05:45:00,60.3,54.8,29.82,NNW,338,0.0,1.0,82,0.00,,,0.00,VWS V14.00,2013-10-05 09:45:00,
2013-10-05 05:50:00,60.3,54.8,29.82,NNW,338,0.0,1.0,82,0.00,,,0.00,VWS V14.00,2013-10-05 09:50:00,
2013-10-05 05:55:00,60.3,54.8,29.82,North,0,0.0,1.0,82,0.00,,,0.00,VWS V14.00,2013-10-05 09:55:00,
2013-10-05 06:00:00,60.3,54.8,29.82,North,0,0.0,1.0,82,0.00,,,0.00,VWS V14.00,2013-10-05 10:00:00,
2013-10-05 06:05:00,60.3,54.8,29.82,North,0,0.0,1.0,82,0.00,,,0.00,VWS V14.00,2013-10-05 10:05:00,
2013-10-05 06:10:00,60.3,54.8,29.82,North,0,0.0,1.0,82,0.00,,,0.00,VWS V14.00,2013-10-05 10:10:00,
2013-10-05 06:15:00,60.1,54.6,29.82,North,0,0.0,1.0,82,0.00,,,0.00,VWS V14.00,2013-10-05 10:15:00,
2013-10-05 06:20:00,60.1,54.6,29.82,North,0,0.0,1.0,82,0.00,,,0.00,VWS V14.00,2013-10-05 10:20:00,
2013-10-05 06:25:00,60.1,54.6,29.82,North,0,0.0,1.0,82,0.00,,,0.00,VWS V14.00,2013-10-05 10:25:00,
2013-10-05 06:30:00,60.1,54.6,29.82,North,0,0.0,1.0,82,0.00,,,0.00,VWS V14.00,2013-10-05 10:30:00,
2013-10-05 06:35:00,60.1,54.6,29.82,North,0,0.0,1.0,82,0.00,,,0.00,VWS V14.00,2013-10-05 10:35:00,
2013-10-05 06:40:00,60.1,54.6,29.82,North,0,0.0,1.0,82,0.00,,,0.00,VWS V14.00,2013-10-05 10:40:00,
2013-10-05 06:45:00,60.1,54.6,29.82,North,0,0.0,1.0,82,0.00,,,0.00,VWS V14.00,2013-10-05 10:45:00,
2013-10-05 06:50:00,60.1,54.6,29.82,North,0,0.0,1.0,82,0.00,,,0.00,VWS V14.00,2013-10-05 10:50:00,
2013-10-05 06:55:00,60.1,54.6,29.85,North,0,0.0,1.0,82,0.00,,,0.00,VWS V14.00,2013-10-05 10:55:00,
2013-10-05 07:00:00,60.1,54.6,29.85,North,0,0.0,1.0,82,0.00,,,0.00,VWS V14.00,2013-10-05 11:00:00,
2013-10-05 07:05:00,60.1,54.6,29.85,North,0,0.0,1.0,82,0.00,,,0.00,VWS V14.00,2013-10-05 11:05:00,
2013-10-05 07:10:00,60.1,54.6,29.82,North,0,0.0,1.0,82,0.00,,,0.00,VWS V14.00,2013-10-05 11:10:00,
2013-10-05 07:15:00,60.1,54.6,29.82,North,0,0.0,1.0,82,0.00,,,0.00,VWS V14.00,2013-10-05 11:15:00,
2013-10-05 07:20:00,60.1,54.6,29.82,North,0,0.0,1.0,82,0.00,,,0.00,VWS V14.00,2013-10-05 11:20:00,
2013-10-05 07:25:00,60.1,54.6,29.85,North,0,0.0,1.0,82,0.00,,,0.00,VWS V14.00,2013-10-05 11:25:00,
2013-10-05 07:30:00,60.1,54.6,29.85,North,0,0.0,1.0,82,0.00,,,0.00,VWS V14.00,2013-10-05 11:30:00,
2013-10-05 07:35:00,60.1,54.9,29.85,North,0,0.0,1.0,83,0.00,,,0.00,VWS V14.00,2013-10-05 11:35:00,
2013-10-05 07:40:00,60.1,54.9,29.85,North,0,0.0,1.0,83,0.00,,,0.00,VWS V14.00,2013-10-05 11:40:00,
2013-10-05 07:45:00,60.1,54.9,29.85,North,0,0.0,1.0,83,0.00,,,0.00,VWS V14.00,2013-10-05 11:45:00,
2013-10-05 07:50:00,60.1,54.9,29.85,NNE,22,0.0,1.0,83,0.00,,,0.00,VWS V14.00,2013-10-05 11:50:00,
2013-10-05 07:55:00,60.3,55.1,29.85,North,0,0.0,1.0,83,0.00,,,0.00,VWS V14.00,2013-10-05 11:55:00,
2013-10-05 08:00:00,60.3,55.1,29.85,NE,45,0.0,1.0,83,0.00,,,0.00,VWS V14.00,2013-10-05 12:00:00,
2013-10-05 08:05:00,60.3,54.8,29.85,NNE,22,0.0,1.0,82,0.00,,,0.00,VWS V14.00,2013-10-05 12:05:00,
2013-10-05 08:10:00,60.3,54.8,29.85,NNE,22,0.0,1.0,82,0.00,,,0.00,VWS V14.00,2013-10-05 12:10:00,
2013-10-05 08:15:00,60.3,54.8,29.85,North,0,5.5,6.5,82,0.00,,,0.00,VWS V14.00,2013-10-05 12:15:00,
2013-10-05 08:20:00,60.3,54.8,29.85,ENE,68,0.0,1.0,82,0.00,,,0.00,VWS V14.00,2013-10-05 12:20:00,
2013-10-05 08:25:00,60.6,55.4,29.85,NE,45,2.0,3.0,83,0.00,,,0.00,VWS V14.00,2013-10-05 12:25:00,
2013-10-05 08:30:00,60.8,55.3,29.85,North,0,0.0,1.0,82,0.00,,,0.00,VWS V14.00,2013-10-05 12:30:00,
2013-10-05 08:35:00,61.0,55.5,29.85,North,0,0.0,1.0,82,0.00,,,0.00,VWS V14.00,2013-10-05 12:35:00,
2013-10-05 08:40:00,61.0,55.1,29.85,NNE,22,0.0,1.0,81,0.00,,,0.00,VWS V14.00,2013-10-05 12:40:00,
2013-10-05 08:45:00,61.0,55.1,29.85,North,0,0.0,1.0,81,0.00,,,0.00,VWS V14.00,2013-10-05 12:45:00,
2013-10-05 08:50:00,61.0,55.1,29.85,WNW,292,0.0,1.0,81,0.00,,,0.00,VWS V14.00,2013-10-05 12:50:00,
2013-10-05 08:55:00,61.2,55.3,29.88,NNW,338,0.0,1.0,81,0.00,,,0.00,VWS V14.00,2013-10-05 12:55:00,
2013-10-05 09:00:00,61.2,55.3,29.88,NNE,22,0.0,1.0,81,0.00,,,0.00,VWS V14.00,2013-10-05 13:00:00,
2013-10-05 09:05:00,61.2,55.3,29.88,North,0,2.0,3.0,81,0.00,,,0.00,VWS V14.00,2013-10-05 13:05:00,
2013-10-05 09:10:00,61.3,55.1,29.85,North,0,0.0,1.0,80,0.00,,,0.00,VWS V14.00,2013-10-05 13:10:00,
2013-10-05 09:15:00,61.5,55.3,29.85,NNW,338,0.0,1.0,80,0.00,,,0.00,VWS V14.00,2013-10-05 13:15:00,
2013-10-05 09:20:00,61.5,55.3,29.85,North,0,0.0,1.0,80,0.00,,,0.00,VWS V14.00,2013-10-05 13:20:00,
2013-10-05 09:25:00,61.7,55.5,29.85,NNE,22,0.0,1.0,80,0.00,,,0.00,VWS V14.00,2013-10-05 13:25:00,
2013-10-05 09:30:00,61.7,55.1,29.85,North,0,0.0,1.0,79,0.00,,,0.00,VWS V14.00,2013-10-05 13:30:00,
2013-10-05 09:35:00,61.9,55.0,29.85,North,0,0.0,1.0,78,0.00,,,0.00,VWS V14.00,2013-10-05 13:35:00,
2013-10-05 09:40:00,61.9,55.0,29.85,NNW,338,0.0,1.0,78,0.00,,,0.00,VWS V14.00,2013-10-05 13:40:00,
2013-10-05 09:45:00,62.1,55.1,29.85,NNW,338,0.0,1.0,78,0.00,,,0.00,VWS V14.00,2013-10-05 13:45:00,
2013-10-05 09:50:00,62.2,55.3,29.85,NNW,338,0.0,1.0,78,0.00,,,0.00,VWS V14.00,2013-10-05 13:50:00,
2013-10-05 09:55:00,62.2,55.0,29.85,North,0,0.0,1.0,77,0.00,,,0.00,VWS V14.00,2013-10-05 13:55:00,
2013-10-05 10:00:00,62.4,55.1,29.85,North,0,0.0,1.0,77,0.00,,,0.00,VWS V14.00,2013-10-05 14:00:00,
2013-10-05 10:05:00,62.6,55.3,29.85,WNW,292,0.0,1.0,77,0.00,,,0.00,VWS V14.00,2013-10-05 14:05:00,
2013-10-05 10:10:00,63.0,54.9,29.85,West,270,0.0,1.0,75,0.00,,,0.00,VWS V14.00,2013-10-05 14:10:00,
2013-10-05 10:15:00,63.1,55.1,29.85,NNW,338,0.0,1.0,75,0.00,,,0.00,VWS V14.00,2013-10-05 14:15:00,
2013-10-05 10:20:00,63.3,54.5,29.85,West,270,0.0,1.0,73,0.00,,,0.00,VWS V14.00,2013-10-05 14:20:00,
2013-10-05 10:25:00,63.1,54.3,29.85,WNW,292,0.0,1.0,73,0.00,,,0.00,VWS V14.00,2013-10-05 14:25:00,
2013-10-05 10:30:00,63.3,54.2,29.85,WNW,292,0.0,1.0,72,0.00,,,0.00,VWS V14.00,2013-10-05 14:30:00,
2013-10-05 10:35:00,63.3,54.5,29.85,WSW,248,0.0,1.0,73,0.00,,,0.00,VWS V14.00,2013-10-05 14:35:00,
2013-10-05 10:40:00,63.7,54.1,29.85,SW,225,0.0,3.3,71,0.00,,,0.00,VWS V14.00,2013-10-05 14:40:00,
2013-10-05 10:45:00,63.7,54.9,29.85,North,0,0.0,1.0,73,0.00,,,0.00,VWS V14.00,2013-10-05 14:45:00,
2013-10-05 10:50:00,64.0,54.8,29.85,SSW,202,0.0,1.0,72,0.00,,,0.00,VWS V14.00,2013-10-05 14:50:00,
2013-10-05 10:55:00,64.2,54.6,29.85,West,270,0.0,1.0,71,0.00,,,0.00,VWS V14.00,2013-10-05 14:55:00,
2013-10-05 11:00:00,64.2,55.0,29.85,WNW,292,0.0,1.0,72,0.00,,,0.00,VWS V14.00,2013-10-05 15:00:00,
2013-10-05 11:05:00,64.4,54.8,29.85,NE,45,0.0,1.0,71,0.00,,,0.00,VWS V14.00,2013-10-05 15:05:00,
2013-10-05 11:10:00,64.4,54.8,29.85,SW,225,0.0,1.0,71,0.00,,,0.00,VWS V14.00,2013-10-05 15:10:00,
2013-10-05 11:15:00,64.8,55.2,29.85,NNW,338,0.0,1.0,71,0.00,,,0.00,VWS V14.00,2013-10-05 15:15:00,
2013-10-05 11:20:00,64.8,55.2,29.85,NE,45,0.0,1.0,71,0.00,,,0.00,VWS V14.00,2013-10-05 15:20:00,
2013-10-05 11:25:00,65.1,54.7,29.85,West,270,0.0,1.0,69,0.00,,,0.00,VWS V14.00,2013-10-05 15:25:00,
2013-10-05 11:30:00,65.3,55.3,29.85,SW,225,0.0,1.0,70,0.00,,,0.00,VWS V14.00,2013-10-05 15:30:00,
2013-10-05 11:35:00,65.5,55.0,29.85,North,0,0.0,1.0,69,0.00,,,0.00,VWS V14.00,2013-10-05 15:35:00,
2013-10-05 11:40:00,65.3,54.9,29.85,NNW,338,0.0,1.0,69,0.00,,,0.00,VWS V14.00,2013-10-05 15:40:00,
2013-10-05 11:45:00,65.8,55.0,29.85,NNE,22,0.0,1.0,68,0.00,,,0.00,VWS V14.00,2013-10-05 15:45:00,
2013-10-05 11:50:00,65.8,55.0,29.85,NNE,22,0.0,1.0,68,0.00,,,0.00,VWS V14.00,2013-10-05 15:50:00,
2013-10-05 11:55:00,65.8,54.6,29.85,NNE,22,0.0,1.0,67,0.00,,,0.00,VWS V14.00,2013-10-05 15:55:00,
2013-10-05 12:00:00,66.0,54.3,29.85,NNE,22,0.0,1.0,66,0.00,,,0.00,VWS V14.00,2013-10-05 16:00:00,
2013-10-05 12:05:00,66.4,54.7,29.85,North,0,0.0,1.0,66,0.00,,,0.00,VWS V14.00,2013-10-05 16:05:00,
2013-10-05 12:10:00,67.5,55.3,29.85,WSW,248,0.0,1.0,65,0.00,,,0.00,VWS V14.00,2013-10-05 16:10:00,
2013-10-05 12:15:00,68.5,55.5,29.85,SW,225,1.6,2.6,63,0.00,,,0.00,VWS V14.00,2013-10-05 16:15:00,
2013-10-05 12:20:00,68.9,55.4,29.85,SE,135,0.0,1.0,62,0.00,,,0.00,VWS V14.00,2013-10-05 16:20:00,
2013-10-05 12:25:00,68.7,55.2,29.85,NE,45,5.1,6.1,62,0.00,,,0.00,VWS V14.00,2013-10-05 16:25:00,
2013-10-05 12:30:00,68.9,54.9,29.85,WSW,248,0.0,6.1,61,0.00,,,0.00,VWS V14.00,2013-10-05 16:30:00,
2013-10-05 12:35:00,68.5,54.6,29.85,NE,45,0.0,1.0,61,0.00,,,0.00,VWS V14.00,2013-10-05 16:35:00,
2013-10-05 12:40:00,68.0,53.6,29.85,North,0,0.0,3.7,60,0.00,,,0.00,VWS V14.00,2013-10-05 16:40:00,
2013-10-05 12:45:00,67.8,53.9,29.85,North,0,0.0,1.0,61,0.00,,,0.00,VWS V14.00,2013-10-05 16:45:00,
2013-10-05 12:50:00,67.8,54.3,29.85,West,270,0.0,1.0,62,0.00,,,0.00,VWS V14.00,2013-10-05 16:50:00,
2013-10-05 12:55:00,68.0,54.1,29.82,WSW,248,0.0,1.0,61,0.00,,,0.00,VWS V14.00,2013-10-05 16:55:00,
2013-10-05 13:00:00,68.0,53.2,29.82,North,0,0.0,1.0,59,0.00,,,0.00,VWS V14.00,2013-10-05 17:00:00,
2013-10-05 13:05:00,67.6,53.3,29.82,North,0,0.0,1.0,60,0.00,,,0.00,VWS V14.00,2013-10-05 17:05:00,
2013-10-05 13:10:00,67.5,53.1,29.82,NNE,22,0.0,1.0,60,0.00,,,0.00,VWS V14.00,2013-10-05 17:10:00,
2013-10-05 13:15:00,67.5,52.7,29.82,WNW,292,0.0,1.0,59,0.00,,,0.00,VWS V14.00,2013-10-05 17:15:00,
2013-10-05 13:20:00,67.6,53.3,29.82,ENE,68,1.6,2.6,60,0.00,,,0.00,VWS V14.00,2013-10-05 17:20:00,
2013-10-05 13:25:00,67.5,52.7,29.82,North,0,4.3,5.3,59,0.00,,,0.00,VWS V14.00,2013-10-05 17:25:00,
2013-10-05 13:30:00,67.3,53.4,29.82,NNE,22,0.0,1.0,61,0.00,,,0.00,VWS V14.00,2013-10-05 17:30:00,
2013-10-05 13:35:00,67.6,54.6,29.82,North,0,0.0,1.0,63,0.00,,,0.00,VWS V14.00,2013-10-05 17:35:00,
2013-10-05 13:40:00,67.6,53.7,29.82,SSW,202,0.0,1.0,61,0.00,,,0.00,VWS V14.00,2013-10-05 17:40:00,
2013-10-05 13:45:00,67.5,53.6,29.82,North,0,0.0,1.0,61,0.00,,,0.00,VWS V14.00,2013-10-05 17:45:00,
2013-10-05 13:50:00,67.5,53.1,29.82,NNE,22,0.0,1.0,60,0.00,,,0.00,VWS V14.00,2013-10-05 17:50:00,
2013-10-05 13:55:00,67.3,52.5,29.82,WSW,248,0.0,1.0,59,0.00,,,0.00,VWS V14.00,2013-10-05 17:55:00,
2013-10-05 14:00:00,67.6,53.3,29.82,NNE,22,0.0,1.0,60,0.00,,,0.00,VWS V14.00,2013-10-05 18:00:00,
2013-10-05 14:05:00,67.1,52.3,29.82,NNE,22,0.0,1.0,59,0.00,,,0.00,VWS V14.00,2013-10-05 18:05:00,
2013-10-05 14:10:00,66.9,52.6,29.82,North,0,0.0,1.0,60,0.00,,,0.00,VWS V14.00,2013-10-05 18:10:00,
2013-10-05 14:15:00,66.9,52.6,29.82,WNW,292,0.0,1.0,60,0.00,,,0.00,VWS V14.00,2013-10-05 18:15:00,
2013-10-05 14:20:00,66.7,52.9,29.82,North,0,0.0,1.0,61,0.00,,,0.00,VWS V14.00,2013-10-05 18:20:00,
2013-10-05 14:25:00,66.7,53.3,29.82,NNE,22,3.9,4.9,62,0.00,,,0.00,VWS V14.00,2013-10-05 18:25:00,
2013-10-05 14:30:00,66.6,54.0,29.82,WNW,292,0.0,1.0,64,0.00,,,0.00,VWS V14.00,2013-10-05 18:30:00,
2013-10-05 14:35:00,66.7,53.8,29.82,WNW,292,0.0,1.0,63,0.00,,,0.00,VWS V14.00,2013-10-05 18:35:00,
2013-10-05 14:40:00,66.7,53.3,29.82,WSW,248,3.5,4.5,62,0.00,,,0.00,VWS V14.00,2013-10-05 18:40:00,
2013-10-05 14:45:00,66.7,53.3,29.82,NW,315,0.0,1.0,62,0.00,,,0.00,VWS V14.00,2013-10-05 18:45:00,
2013-10-05 14:50:00,66.4,53.4,29.82,NNE,22,0.0,1.0,63,0.00,,,0.00,VWS V14.00,2013-10-05 18:50:00,
2013-10-05 14:55:00,66.4,53.8,29.82,North,0,0.0,1.0,64,0.00,,,0.00,VWS V14.00,2013-10-05 18:55:00,
2013-10-05 15:00:00,66.7,54.2,29.82,SW,225,5.1,6.1,64,0.00,,,0.00,VWS V14.00,2013-10-05 19:00:00,
2013-10-05 15:05:00,66.7,53.8,29.82,NNW,338,0.0,1.0,63,0.00,,,0.00,VWS V14.00,2013-10-05 19:05:00,
2013-10-05 15:10:00,66.6,53.6,29.82,NNE,22,0.0,1.0,63,0.00,,,0.00,VWS V14.00,2013-10-05 19:10:00,
2013-10-05 15:15:00,66.4,53.8,29.82,NNW,338,0.0,1.0,64,0.00,,,0.00,VWS V14.00,2013-10-05 19:15:00,
2013-10-05 15:20:00,66.6,54.0,29.82,NNE,22,2.0,3.0,64,0.00,,,0.00,VWS V14.00,2013-10-05 19:20:00,
2013-10-05 15:25:00,66.4,53.8,29.82,NNE,22,0.0,1.0,64,0.00,,,0.00,VWS V14.00,2013-10-05 19:25:00,
2013-10-05 15:30:00,66.6,54.4,29.82,NW,315,0.0,1.0,65,0.00,,,0.00,VWS V14.00,2013-10-05 19:30:00,
2013-10-05 15:35:00,66.7,54.6,29.82,NW,315,0.0,1.0,65,0.00,,,0.00,VWS V14.00,2013-10-05 19:35:00,
2013-10-05 15:40:00,66.4,54.3,29.82,NNE,22,0.0,1.0,65,0.00,,,0.00,VWS V14.00,2013-10-05 19:40:00,
2013-10-05 15:45:00,66.4,54.3,29.82,NE,45,4.3,5.3,65,0.00,,,0.00,VWS V14.00,2013-10-05 19:45:00,
2013-10-05 15:50:00,66.4,54.3,29.82,NNE,22,0.0,1.0,65,0.00,,,0.00,VWS V14.00,2013-10-05 19:50:00,
2013-10-05 15:55:00,66.6,54.0,29.82,NNE,22,0.0,1.0,64,0.00,,,0.00,VWS V14.00,2013-10-05 19:55:00,
2013-10-05 16:00:00,66.4,53.8,29.82,NNE,22,0.0,1.0,64,0.00,,,0.00,VWS V14.00,2013-10-05 20:00:00,
2013-10-05 16:05:00,66.4,53.4,29.82,NNW,338,0.0,1.0,63,0.00,,,0.00,VWS V14.00,2013-10-05 20:05:00,
2013-10-05 16:10:00,66.2,52.8,29.82,NNE,22,0.0,1.0,62,0.00,,,0.00,VWS V14.00,2013-10-05 20:10:00,
2013-10-05 16:15:00,66.2,53.2,29.82,SW,225,0.0,5.3,63,0.00,,,0.00,VWS V14.00,2013-10-05 20:15:00,
2013-10-05 16:20:00,66.6,53.6,29.82,NNE,22,0.0,1.0,63,0.00,,,0.00,VWS V14.00,2013-10-05 20:20:00,
2013-10-05 16:25:00,66.4,53.8,29.82,North,0,0.0,1.0,64,0.00,,,0.00,VWS V14.00,2013-10-05 20:25:00,
2013-10-05 16:30:00,66.4,54.3,29.82,NW,315,0.0,4.9,65,0.00,,,0.00,VWS V14.00,2013-10-05 20:30:00,
2013-10-05 16:35:00,66.2,54.1,29.82,NW,315,0.0,1.0,65,0.00,,,0.00,VWS V14.00,2013-10-05 20:35:00,
2013-10-05 16:40:00,66.2,54.1,29.82,NNW,338,0.0,1.0,65,0.00,,,0.00,VWS V14.00,2013-10-05 20:40:00,
2013-10-05 16:45:00,65.8,54.6,29.82,North,0,0.0,1.0,67,0.00,,,0.00,VWS V14.00,2013-10-05 20:45:00,
2013-10-05 16:50:00,65.8,55.0,29.82,NNW,338,0.0,1.0,68,0.00,,,0.00,VWS V14.00,2013-10-05 20:50:00,
2013-10-05 16:55:00,65.7,55.2,29.82,SE,135,0.0,1.0,69,0.00,,,0.00,VWS V14.00,2013-10-05 20:55:00,
2013-10-05 17:00:00,65.5,55.0,29.82,North,0,0.0,1.0,69,0.00,,,0.00,VWS V14.00,2013-10-05 21:00:00,
2013-10-05 17:05:00,64.9,54.9,29.82,NNE,22,0.0,1.0,70,0.00,,,0.00,VWS V14.00,2013-10-05 21:05:00,
2013-10-05 17:10:00,64.8,54.8,29.82,NNE,22,0.0,1.0,70,0.00,,,0.00,VWS V14.00,2013-10-05 21:10:00,
2013-10-05 17:15:00,64.9,54.9,29.82,North,0,0.0,1.0,70,0.00,,,0.00,VWS V14.00,2013-10-05 21:15:00,
2013-10-05 17:20:00,64.8,54.8,29.82,NW,315,0.0,1.0,70,0.00,,,0.00,VWS V14.00,2013-10-05 21:20:00,
2013-10-05 17:25:00,64.6,55.0,29.82,North,0,0.0,1.0,71,0.00,,,0.00,VWS V14.00,2013-10-05 21:25:00,
2013-10-05 17:30:00,64.4,54.8,29.82,NNW,338,0.0,1.0,71,0.00,,,0.00,VWS V14.00,2013-10-05 21:30:00,
2013-10-05 17:35:00,64.4,54.8,29.82,NNW,338,0.0,1.0,71,0.00,,,0.00,VWS V14.00,2013-10-05 21:35:00,
2013-10-05 17:40:00,64.4,54.8,29.82,West,270,0.0,1.0,71,0.00,,,0.00,VWS V14.00,2013-10-05 21:40:00,
2013-10-05 17:45:00,64.6,55.0,29.82,West,270,0.0,1.0,71,0.00,,,0.00,VWS V14.00,2013-10-05 21:45:00,
2013-10-05 17:50:00,64.4,54.8,29.82,West,270,0.0,1.0,71,0.00,,,0.00,VWS V14.00,2013-10-05 21:50:00,
2013-10-05 17:55:00,64.4,54.8,29.82,NNW,338,0.0,1.0,71,0.00,,,0.00,VWS V14.00,2013-10-05 21:55:00,
2013-10-05 18:00:00,64.2,54.6,29.82,North,0,0.0,1.0,71,0.00,,,0.00,VWS V14.00,2013-10-05 22:00:00,
2013-10-05 18:05:00,64.2,54.6,29.82,North,0,0.0,1.0,71,0.00,,,0.00,VWS V14.00,2013-10-05 22:05:00,
2013-10-05 18:10:00,64.0,54.5,29.82,NNE,22,0.0,1.0,71,0.00,,,0.00,VWS V14.00,2013-10-05 22:10:00,
2013-10-05 18:15:00,63.9,54.3,29.82,NNE,22,0.0,1.0,71,0.00,,,0.00,VWS V14.00,2013-10-05 22:15:00,
2013-10-05 18:20:00,63.9,54.7,29.82,NNE,22,0.0,1.0,72,0.00,,,0.00,VWS V14.00,2013-10-05 22:20:00,
2013-10-05 18:25:00,63.7,54.5,29.82,North,0,0.0,1.0,72,0.00,,,0.00,VWS V14.00,2013-10-05 22:25:00,
2013-10-05 18:30:00,63.7,54.5,29.82,North,0,0.0,1.0,72,0.00,,,0.00,VWS V14.00,2013-10-05 22:30:00,
2013-10-05 18:35:00,63.5,53.9,29.82,NNE,22,0.0,1.0,71,0.00,,,0.00,VWS V14.00,2013-10-05 22:35:00,
2013-10-05 18:40:00,63.5,53.9,29.85,East,90,0.0,1.0,71,0.00,,,0.00,VWS V14.00,2013-10-05 22:40:00,
2013-10-05 18:45:00,63.3,53.8,29.85,NNE,22,0.0,1.0,71,0.00,,,0.00,VWS V14.00,2013-10-05 22:45:00,
2013-10-05 18:50:00,63.1,53.6,29.85,North,0,0.0,1.0,71,0.00,,,0.00,VWS V14.00,2013-10-05 22:50:00,
2013-10-05 18:55:00,63.1,53.6,29.85,NNE,22,0.0,1.0,71,0.00,,,0.00,VWS V14.00,2013-10-05 22:55:00,
2013-10-05 19:00:00,63.0,53.4,29.85,North,0,0.0,1.0,71,0.00,,,0.00,VWS V14.00,2013-10-05 23:00:00,
2013-10-05 19:05:00,63.0,53.4,29.85,NNE,22,0.0,1.0,71,0.00,,,0.00,VWS V14.00,2013-10-05 23:05:00,
2013-10-05 19:10:00,63.0,53.4,29.85,NNW,338,0.0,1.0,71,0.00,,,0.00,VWS V14.00,2013-10-05 23:10:00,
2013-10-05 19:15:00,62.8,53.2,29.85,NNE,22,0.0,1.0,71,0.00,,,0.00,VWS V14.00,2013-10-05 23:15:00,
2013-10-05 19:20:00,62.8,53.2,29.85,NE,45,0.0,1.0,71,0.00,,,0.00,VWS V14.00,2013-10-05 23:20:00,
2013-10-05 19:25:00,62.6,53.1,29.85,NE,45,0.0,1.0,71,0.00,,,0.00,VWS V14.00,2013-10-05 23:25:00,
2013-10-05 19:30:00,62.6,53.1,29.85,North,0,0.0,1.0,71,0.00,,,0.00,VWS V14.00,2013-10-05 23:30:00,
2013-10-05 19:35:00,62.4,53.3,29.85,NNE,22,0.0,1.0,72,0.00,,,0.00,VWS V14.00,2013-10-05 23:35:00,
2013-10-05 19:40:00,62.4,53.3,29.85,North,0,0.0,1.0,72,0.00,,,0.00,VWS V14.00,2013-10-05 23:40:00,
2013-10-05 19:45:00,62.2,53.1,29.85,North,0,0.0,1.0,72,0.00,,,0.00,VWS V14.00,2013-10-05 23:45:00,
2013-10-05 19:50:00,62.2,52.7,29.85,North,0,0.0,1.0,71,0.00,,,0.00,VWS V14.00,2013-10-05 23:50:00,
2013-10-05 19:55:00,62.2,52.7,29.85,North,0,0.0,1.0,71,0.00,,,0.00,VWS V14.00,2013-10-05 23:55:00,
2013-10-05 20:00:00,62.2,53.1,29.85,NNE,22,0.0,1.0,72,0.00,,,0.00,VWS V14.00,2013-10-06 00:00:00,
2013-10-05 20:05:00,62.1,52.9,29.85,North,0,0.0,1.0,72,0.00,,,0.00,VWS V14.00,2013-10-06 00:05:00,
2013-10-05 20:10:00,61.9,52.4,29.85,NNE,22,0.0,1.0,71,0.00,,,0.00,VWS V14.00,2013-10-06 00:10:00,
2013-10-05 20:15:00,61.9,52.8,29.85,North,0,0.0,1.0,72,0.00,,,0.00,VWS V14.00,2013-10-06 00:15:00,
2013-10-05 20:20:00,61.7,52.2,29.85,North,0,0.0,1.0,71,0.00,,,0.00,VWS V14.00,2013-10-06 00:20:00,
2013-10-05 20:25:00,61.7,52.6,29.85,North,0,0.0,1.0,72,0.00,,,0.00,VWS V14.00,2013-10-06 00:25:00,
2013-10-05 20:30:00,61.7,52.2,29.85,North,0,0.0,1.0,71,0.00,,,0.00,VWS V14.00,2013-10-06 00:30:00,
2013-10-05 20:35:00,61.7,52.2,29.85,North,0,0.0,1.0,71,0.00,,,0.00,VWS V14.00,2013-10-06 00:35:00,
2013-10-05 20:40:00,61.5,52.4,29.85,North,0,0.0,1.0,72,0.00,,,0.00,VWS V14.00,2013-10-06 00:40:00,
2013-10-05 20:45:00,61.5,52.4,29.85,NNW,338,0.0,4.5,72,0.00,,,0.00,VWS V14.00,2013-10-06 00:45:00,
2013-10-05 20:50:00,61.5,52.4,29.85,NNE,22,0.0,1.0,72,0.00,,,0.00,VWS V14.00,2013-10-06 00:50:00,
2013-10-05 20:55:00,61.5,52.4,29.85,North,0,0.0,1.0,72,0.00,,,0.00,VWS V14.00,2013-10-06 00:55:00,
2013-10-05 21:00:00,61.3,52.2,29.85,NNW,338,0.0,1.0,72,0.00,,,0.00,VWS V14.00,2013-10-06 01:00:00,
2013-10-05 21:05:00,61.3,52.2,29.85,NNE,22,0.0,1.0,72,0.00,,,0.00,VWS V14.00,2013-10-06 01:05:00,
2013-10-05 21:10:00,61.3,52.2,29.85,North,0,0.0,1.0,72,0.00,,,0.00,VWS V14.00,2013-10-06 01:10:00,
2013-10-05 21:15:00,61.3,52.2,29.85,North,0,0.0,1.0,72,0.00,,,0.00,VWS V14.00,2013-10-06 01:15:00,
2013-10-05 21:20:00,61.3,52.2,29.85,North,0,0.0,1.0,72,0.00,,,0.00,VWS V14.00,2013-10-06 01:20:00,
2013-10-05 21:25:00,61.3,52.2,29.85,North,0,0.0,1.0,72,0.00,,,0.00,VWS V14.00,2013-10-06 01:25:00,
2013-10-05 21:30:00,61.3,52.2,29.85,NNE,22,0.0,1.0,72,0.00,,,0.00,VWS V14.00,2013-10-06 01:30:00,
2013-10-05 21:35:00,61.3,52.2,29.85,North,0,0.0,1.0,72,0.00,,,0.00,VWS V14.00,2013-10-06 01:35:00,
2013-10-05 21:40:00,61.3,52.2,29.85,North,0,0.0,1.0,72,0.00,,,0.00,VWS V14.00,2013-10-06 01:40:00,
2013-10-05 21:45:00,61.3,52.2,29.85,North,0,0.0,1.0,72,0.00,,,0.00,VWS V14.00,2013-10-06 01:45:00,
2013-10-05 21:50:00,61.3,52.2,29.85,North,0,0.0,1.0,72,0.00,,,0.00,VWS V14.00,2013-10-06 01:50:00,
2013-10-05 21:55:00,61.3,52.6,29.88,North,0,0.0,1.0,73,0.00,,,0.00,VWS V14.00,2013-10-06 01:55:00,
2013-10-05 22:00:00,61.3,52.2,29.88,North,0,0.0,1.0,72,0.00,,,0.00,VWS V14.00,2013-10-06 02:00:00,
2013-10-05 22:05:00,61.3,52.6,29.88,North,0,0.0,1.0,73,0.00,,,0.00,VWS V14.00,2013-10-06 02:05:00,
2013-10-05 22:10:00,61.2,52.5,29.85,ENE,68,0.0,1.0,73,0.00,,,0.00,VWS V14.00,2013-10-06 02:10:00,
2013-10-05 22:14:00,61.3,52.6,29.85,North,0,0.0,1.0,73,0.00,,,0.00,VWS V14.00,2013-10-06 02:14:00,
2013-10-05 22:19:00,61.3,52.6,29.85,WNW,292,0.0,1.0,73,0.00,,,0.00,VWS V14.00,2013-10-06 02:19:00,
2013-10-05 22:25:00,61.3,52.2,29.88,WNW,292,0.0,1.0,72,0.00,,,0.00,VWS V14.00,2013-10-06 02:25:00,
2013-10-05 22:29:00,61.3,52.2,29.88,WNW,292,0.0,1.0,72,0.00,,,0.00,VWS V14.00,2013-10-06 02:29:00,
2013-10-05 22:35:00,61.3,52.2,29.88,WNW,292,0.0,1.0,72,0.00,,,0.00,VWS V14.00,2013-10-06 02:35:00,
2013-10-05 22:39:00,61.3,52.2,29.88,NW,315,0.0,1.0,72,0.00,,,0.00,VWS V14.00,2013-10-06 02:39:00,
2013-10-05 22:44:00,61.3,52.2,29.88,NW,315,0.0,1.0,72,0.00,,,0.00,VWS V14.00,2013-10-06 02:44:00,
2013-10-05 22:49:00,61.3,52.2,29.88,NW,315,0.0,1.0,72,0.00,,,0.00,VWS V14.00,2013-10-06 02:49:00,
2013-10-05 22:54:00,61.3,52.2,29.88,NW,315,0.0,1.0,72,0.00,,,0.00,VWS V14.00,2013-10-06 02:54:00,
2013-10-05 22:59:00,61.3,52.2,29.88,NW,315,0.0,1.0,72,0.00,,,0.00,VWS V14.00,2013-10-06 02:59:00,
2013-10-05 23:04:00,61.3,52.2,29.88,WNW,292,0.0,1.0,72,0.00,,,0.00,VWS V14.00,2013-10-06 03:04:00,
2013-10-05 23:09:00,61.3,52.2,29.88,WNW,292,0.0,1.0,72,0.00,,,0.00,VWS V14.00,2013-10-06 03:09:00,
2013-10-05 23:14:00,61.3,52.2,29.88,WNW,292,0.0,1.0,72,0.00,,,0.00,VWS V14.00,2013-10-06 03:14:00,
2013-10-05 23:19:00,61.3,52.2,29.88,WNW,292,0.0,1.0,72,0.00,,,0.00,VWS V14.00,2013-10-06 03:19:00,
2013-10-05 23:24:00,61.3,52.2,29.85,NNW,338,0.0,1.0,72,0.00,,,0.00,VWS V14.00,2013-10-06 03:24:00,
2013-10-05 23:29:00,61.3,52.2,29.85,NNW,338,0.0,1.0,72,0.00,,,0.00,VWS V14.00,2013-10-06 03:29:00,
2013-10-05 23:34:00,61.3,52.2,29.85,NNW,338,0.0,1.0,72,0.00,,,0.00,VWS V14.00,2013-10-06 03:34:00,
2013-10-05 23:39:00,61.3,52.2,29.88,NNW,338,0.0,1.0,72,0.00,,,0.00,VWS V14.00,2013-10-06 03:39:00,
2013-10-05 23:44:00,61.3,52.2,29.88,NNW,338,0.0,1.0,72,0.00,,,0.00,VWS V14.00,2013-10-06 03:44:00,
2013-10-05 23:49:00,61.5,52.4,29.88,NNW,338,0.0,1.0,72,0.00,,,0.00,VWS V14.00,2013-10-06 03:49:00,
2013-10-05 23:54:00,61.3,52.2,29.88,NNW,338,0.0,1.0,72,0.00,,,0.00,VWS V14.00,2013-10-06 03:54:00,
2013-10-05 23:59:00,61.3,52.2,29.88,NNW,338,0.0,1.0,72,0.00,,,0.00,VWS V14.00,2013-10-06 03:59:00,